Location: Juiz de Fora
(21.7500°S, 43.3330°W)
Time: 05:01:59
(UTC-03:00)

Hubble Space Telescope - Pass Details

Date: 26 June 2024
Orbit: 510 x 513 km, 28.5° (Epoch: 17 July)

Event Time Altitude Azimuth Distance (km) Brightness Sun altitude
Rises 18:31:40 0° 251° (WSW) 2,623 5.1 -16.1°
Reaches altitude 10° 18:34:05 10° 240° (WSW) 1,738 3.9 -16.6°
Maximum altitude 18:37:41 31° 177° (S) 928 1.7 -17.4°
Enters shadow 18:38:23 29° 156° (SSE) 973 1.7 -17.6°
